Flag for Brazil

Past Weather in Passo Fundo, Rio Grande do Sul, Brazil — Yesterday and Last 2 Weeks

Now
73 °F

Clear.


Feels Like: 75 °F
Forecast: N/A
Wind: 2 mph from East

Location: Porto Alegre Aero-Porto
Current Time: Sep 18, 2020 at 8:28:13 pm
Latest Report: Sep 18, 2020 at 8:00 pm
Visibility: 10 mi
Pressure29.83 "Hg(27.58 "Hg at 680m altitude)
Humidity: 74%
Dew Point: 64 °F
Location of Passo FundoLocation

Past Weather in Passo Fundo — Graph

°F

Passo Fundo Temperature Yesterday

Maximum temperature yesterday: 73 °F (at 3:00 pm)
Minimum temperature yesterday: 57 °F (at 6:00 am)
Average temperature yesterday: 65 °F

High & Low Weather Summary for the Past Weeks

 TemperatureHumidityPressure
High79 °F (Sep 9, 2:00 pm)100% (Sep 4, 3:00 am)30.36 "Hg (Sep 4, 3:00 am)
Low46 °F (Sep 15, 5:00 am)55% (Sep 14, 2:00 pm)29.77 "Hg (Sep 11, 6:00 pm)
Average63 °F92%30.02 "Hg
* Reported Sep 3 7:00 pm — Sep 18 7:00 pm, Passo Fundo. Weather by CustomWeather, © 2020

Note: Actual official high and low records may vary slightly from our data, if they occured in-between our weather recording intervals... More about our weather records

Passo Fundo Weather History for the Previous 24 Hours

Scroll right to see more
 ConditionsComfort  
Time TempWeatherWind HumidityBarometerVisibility
7:00 pm
Fri, Sep 18
73 °FClear.5 mph78%29.83 "Hg10 mi
6:00 pm75 °FSunny.6 mph74%29.80 "Hg10 mi
5:00 pm79 °FSunny.10 mph65%29.80 "Hg10 mi
4:00 pm79 °FSunny.8 mph61%29.80 "Hg10 mi
3:00 pm79 °FPassing clouds.12 mph65%29.80 "HgN/A
2:00 pm77 °FPassing clouds.7 mph69%29.83 "HgN/A
1:00 pm75 °FPassing clouds.7 mph78%29.86 "HgN/A
12:00 pm75 °FPassing clouds.6 mph74%29.89 "HgN/A
11:00 am72 °FPassing clouds.5 mph88%29.89 "HgN/A
10:00 am68 °FClear.3 mph94%29.89 "Hg6 mi
9:23 am64 °FPassing clouds.6 mph100%29.89 "Hg4 mi
9:00 am61 °FFog.3 mph100%29.89 "Hg2 mi
8:08 am59 °FFog.2 mph100%29.92 "Hg1 mi
8:00 am61 °FFog.1 mph100%29.89 "Hg1 mi
7:00 am59 °FFog.2 mph100%29.89 "Hg0 mi
6:00 am59 °FFog.3 mph100%29.86 "Hg0 mi
5:00 am59 °FFog.No wind100%29.86 "Hg0 mi
4:00 am61 °FFog.No wind100%29.83 "Hg0 mi
3:00 am61 °FFog.3 mph100%29.86 "Hg0 mi
2:00 am61 °FFog.No wind100%29.86 "HgN/A
1:00 am61 °FFog.2 mph100%29.89 "Hg1 mi
12:16 am61 °FFog.6 mph100%29.89 "Hg1 mi
12:06 am61 °FFog.5 mph100%29.89 "Hg1 mi
11:00 pm
Thu, Sep 17
63 °FClear.7 mph94%29.92 "Hg10 mi
10:00 pm63 °FClear.7 mph94%29.92 "Hg10 mi
9:00 pm63 °FClear.6 mph94%29.92 "Hg10 mi
8:00 pm64 °FClear.7 mph94%29.89 "Hg10 mi
Weather by CustomWeather, © 2020

See weather overview